Darstellungsparameter: Aktuell verwendete Einstellungen:
Skalierung der Graphiken ... ?
xyx+y,   Skalierungsfaktor:      Skalierung: Modus: x, Faktor: 1
Darstellungszeitraum ... ?
Vom - - bis: - -   Zeitraum: 30.04.2019 - 29.04.2020
Min/Max/Avg-Anzeige ... ?
Zeige MMA aktuell
Zeige MMA Monat
Zeige MMA alles
Zeige --A aktuell
Zeige --A Monat
Zeige --A alles
Keine MMA-Anzeige
MMA:
Keine MMA-Graphiken
MMA-Basis: 30.04.2019 - 29.04.2020
Quicknavigation für Darstellung... ?
Tage:      1T, 2T, 3T, 5T -1T -2T -3T -5T +1T +2T +3T +5T
Wochen: 1W, 2W, 3W -1W -2W -3W +1W +2W +3W
Monate: 1M, 3M, 6M -1M -3M -6M +1M +3M +6M
Jahre:    1J, 3J, 5J, 10J -1J -3J -5J -10J +1J +3J +5J +10J
Nutze für die Darstellung ... ?
Originaldaten oder ...
Mittelwerte Minima Maxima auf...
Stundenbasis Tagesbasis Wochenbasis
Monatsbasis Jahresbasis      Datenbasis: Mittelwerte auf Tagesbasis
Darstellen als:
Statistik (Auto) Statistik J:M      Darstellung:
Zur Graphik,    zurück zur Übersicht aller Sensoren.
 
Tabellarische Datenbersicht: ?
 
Sensor: Nr:Datum:Temp:Feuchte:Taupunkt:
Aussen-T/F 1 30-04-2019 00:00:00 14.05278 C 68.6979 % 8.39 C
2 01-05-2019 00:00:00 12.7816 C 76.3333 % 8.73 C
3 02-05-2019 00:00:00 11.4566 C 80.2535 % 8.18 C
4 03-05-2019 00:00:00 11.00208 C 73.3056 % 6.42 C
5 04-05-2019 00:00:00 6.36493 C 84.2014 % 3.9 C
6 05-05-2019 00:00:00 6.67882 C 81.4167 % 3.73 C
7 06-05-2019 00:00:00 7.62465 C 77.0660 % 3.87 C
8 07-05-2019 00:00:00 9.6066 C 73.7396 % 5.16 C
9 08-05-2019 00:00:00 9.41667 C 88.5972 % 7.63 C
10 09-05-2019 00:00:00 11.20938 C 88.9410 % 9.46 C
11 10-05-2019 00:00:00 12.49306 C 77.5833 % 8.69 C
12 11-05-2019 00:00:00 10.05833 C 93.1111 % 9 C
13 12-05-2019 00:00:00 9.40625 C 72.7778 % 4.78 C
14 13-05-2019 00:00:00 9.96736 C 61.6701 % 2.96 C
15 14-05-2019 00:00:00 9.58299 C 64.4479 % 3.22 C
16 15-05-2019 00:00:00 9.79896 C 60.9583 % 2.64 C
17 16-05-2019 00:00:00 10.83854 C 70.4271 % 5.68 C
18 17-05-2019 00:00:00 11.60069 C 89.4896 % 9.93 C
19 18-05-2019 00:00:00 14.44306 C 85.5035 % 12.04 C
20 19-05-2019 00:00:00 15.85694 C 83.5868 % 13.08 C
21 20-05-2019 00:00:00 13.90347 C 89.8125 % 12.26 C
22 21-05-2019 00:00:00 12.49722 C 93.0868 % 11.41 C
23 22-05-2019 00:00:00 13.38785 C 80.8681 % 10.17 C
24 23-05-2019 00:00:00 15.11875 C 74.1389 % 10.55 C
25 24-05-2019 00:00:00 16.93437 C 70.9271 % 11.63 C
Sensor: Nr:Datum:Temp:Feuchte:Taupunkt:
Aussen-T/F 26 25-05-2019 00:00:00 15.60035 C 67.4167 % 9.59 C
27 26-05-2019 00:00:00 15.92014 C 74.4549 % 11.39 C
28 27-05-2019 00:00:00 14.98924 C 90.8889 % 13.51 C
29 28-05-2019 00:00:00 13.95729 C 85.1146 % 11.5 C
30 29-05-2019 00:00:00 14.97951 C 68.2535 % 9.18 C
31 30-05-2019 00:00:00 15.62396 C 78.5069 % 11.9 C
32 31-05-2019 00:00:00 19.22674 C 74.1806 % 14.52 C
33 01-06-2019 00:00:00 19.98924 C 74.3090 % 15.28 C
34 02-06-2019 00:00:00 22.09028 C 70.5521 % 16.49 C
35 03-06-2019 00:00:00 20.85625 C 73.4583 % 15.94 C
36 04-06-2019 00:00:00 21.5059 C 73.6146 % 16.59 C
37 05-06-2019 00:00:00 23.45243 C 67.8507 % 17.17 C
38 06-06-2019 00:00:00 15.94271 C 78.5556 % 12.22 C
39 07-06-2019 00:00:00 15.6809 C 76.3646 % 11.54 C
40 08-06-2019 00:00:00 16.15243 C 62.7743 % 9.06 C
41 09-06-2019 00:00:00 16.23438 C 72.8542 % 11.36 C
42 10-06-2019 00:00:00 19.2684 C 73.8403 % 14.49 C
43 11-06-2019 00:00:00 17.19063 C 83.4826 % 14.37 C
44 12-06-2019 00:00:00 16.48854 C 82.3194 % 13.47 C
45 13-06-2019 00:00:00 15.92743 C 75.5694 % 11.62 C
46 14-06-2019 00:00:00 17.88507 C 82.6875 % 14.9 C
47 15-06-2019 00:00:00 19.62083 C 79.3646 % 15.95 C
48 16-06-2019 00:00:00 19.34479 C 71.4271 % 14.05 C
49 17-06-2019 00:00:00 18.93646 C 73.1111 % 14.02 C
50 18-06-2019 00:00:00 21.4625 C 72.7188 % 16.36 C
Sensor: Nr:Datum:Temp:Feuchte:Taupunkt:
Aussen-T/F 51 19-06-2019 00:00:00 22.17049 C 73.3125 % 17.17 C
52 20-06-2019 00:00:00 19.48229 C 80.3681 % 16.01 C
53 21-06-2019 00:00:00 18.55694 C 68.4306 % 12.64 C
54 22-06-2019 00:00:00 19.16771 C 69.5729 % 13.47 C
55 23-06-2019 00:00:00 21.78854 C 71.5521 % 16.42 C
56 24-06-2019 00:00:00 24.3809 C 68.9965 % 18.32 C
57 25-06-2019 00:00:00 26.30625 C 65.6458 % 19.36 C
58 26-06-2019 00:00:00 26.97257 C 66.5486 % 20.21 C
59 27-06-2019 00:00:00 24.42326 C 58.6910 % 15.81 C
60 28-06-2019 00:00:00 21.63368 C 60.1458 % 13.57 C
61 29-06-2019 00:00:00 24.00937 C 53.3750 % 13.95 C
62 30-06-2019 00:00:00 25.32014 C 62.4688 % 17.63 C
63 01-07-2019 00:00:00 22.68715 C 60.6875 % 14.7 C
64 02-07-2019 00:00:00 19.04306 C 61.0868 % 11.38 C
65 03-07-2019 00:00:00 17.43472 C 61.1146 % 9.87 C
66 04-07-2019 00:00:00 18.23021 C 56.4375 % 9.43 C
67 05-07-2019 00:00:00 20.73889 C 56.5486 % 11.8 C
68 06-07-2019 00:00:00 21.18681 C 61.5174 % 13.5 C
69 07-07-2019 00:00:00 17.74306 C 68.3819 % 11.85 C
70 08-07-2019 00:00:00 14.44931 C 70.9271 % 9.25 C
71 09-07-2019 00:00:00 15.40868 C 66.0868 % 9.11 C
72 10-07-2019 00:00:00 16.98854 C 57.9271 % 8.66 C
73 11-07-2019 00:00:00 17.76076 C 79.7500 % 14.22 C
74 12-07-2019 00:00:00 17.3375 C 92.0313 % 16.03 C
75 13-07-2019 00:00:00 17.99896 C 83.4549 % 15.15 C
Sensor: Nr:Datum:Temp:Feuchte:Taupunkt:
Aussen-T/F 76 14-07-2019 00:00:00 16.92569 C 75.5729 % 12.58 C
77 15-07-2019 00:00:00 16.34757 C 73.9826 % 11.7 C
78 16-07-2019 00:00:00 16.0375 C 75.3507 % 11.68 C
79 17-07-2019 00:00:00 17.21979 C 76.2847 % 13.01 C
80 18-07-2019 00:00:00 19.06944 C 74.1424 % 14.36 C
81 19-07-2019 00:00:00 20.2441 C 77.7257 % 16.23 C
82 20-07-2019 00:00:00 21.61736 C 75.2292 % 17.04 C
83 21-07-2019 00:00:00 21.96076 C 68.7569 % 15.96 C
84 22-07-2019 00:00:00 22.29861 C 66.0139 % 15.64 C
85 23-07-2019 00:00:00 25.05139 C 61.5764 % 17.15 C
86 24-07-2019 00:00:00 27.05069 C 57.6528 % 17.98 C
87 25-07-2019 00:00:00 28.69028 C 53.5729 % 18.33 C
88 26-07-2019 00:00:00 27.21528 C 56.0694 % 17.69 C
89 27-07-2019 00:00:00 23.20069 C 79.9340 % 19.54 C
90 28-07-2019 00:00:00 19.86597 C 90.5938 % 18.28 C
91 29-07-2019 00:00:00 21.16354 C 73.6146 % 16.26 C
92 30-07-2019 00:00:00 21.86528 C 66.5625 % 15.36 C
93 31-07-2019 00:00:00 21.06111 C 60.7778 % 13.2 C
94 01-08-2019 00:00:00 19.46424 C 65.5833 % 12.85 C
95 02-08-2019 00:00:00 20.52743 C 69.8611 % 14.84 C
96 03-08-2019 00:00:00 20.39271 C 72.5833 % 15.3 C
97 04-08-2019 00:00:00 20.53854 C 68.3681 % 14.51 C
98 05-08-2019 00:00:00 22.56562 C 67.3333 % 16.21 C
99 06-08-2019 00:00:00 19.97604 C 80.0104 % 16.42 C
100 07-08-2019 00:00:00 19.07535 C 87.4479 % 16.94 C
Sensor: Nr:Datum:Temp:Feuchte:Taupunkt:
Aussen-T/F 101 08-08-2019 00:00:00 20.39132 C 75.4826 % 15.91 C
102 09-08-2019 00:00:00 19.85833 C 86.8125 % 17.6 C
103 10-08-2019 00:00:00 20.67986 C 77.2986 % 16.56 C
104 11-08-2019 00:00:00 16.99444 C 80.9028 % 13.69 C
105 12-08-2019 00:00:00 16.4441 C 84.5729 % 13.84 C
106 13-08-2019 00:00:00 15.94306 C 78.5799 % 12.23 C
107 14-08-2019 00:00:00 16.52882 C 76.0139 % 12.29 C
108 15-08-2019 00:00:00 17.34306 C 88.4896 % 15.42 C
109 16-08-2019 00:00:00 17.72257 C 80.7049 % 14.37 C
110 17-08-2019 00:00:00 18.07049 C 86.6146 % 15.8 C
111 18-08-2019 00:00:00 19.8941 C 90.2847 % 18.25 C
112 19-08-2019 00:00:00 18.3684 C 77.8715 % 14.44 C
113 20-08-2019 00:00:00 15.78611 C 80.0347 % 12.35 C
114 21-08-2019 00:00:00 16.52222 C 75.4306 % 12.17 C
115 22-08-2019 00:00:00 17.27465 C 72.3576 % 12.26 C
116 23-08-2019 00:00:00 18.44792 C 70.9271 % 13.08 C
117 24-08-2019 00:00:00 19.52326 C 70.7153 % 14.06 C
118 25-08-2019 00:00:00 21.57431 C 75.4097 % 17.04 C
119 26-08-2019 00:00:00 22.3684 C 80.4097 % 18.83 C
120 27-08-2019 00:00:00 22.81979 C 79.4132 % 19.07 C
121 28-08-2019 00:00:00 23.38924 C 73.0868 % 18.29 C
122 29-08-2019 00:00:00 22.04201 C 76.9236 % 17.81 C
123 30-08-2019 00:00:00 21.0059 C 72.4444 % 15.86 C
124 31-08-2019 00:00:00 22.0566 C 72.1215 % 16.8 C
125 01-09-2019 00:00:00 18.73056 C 76.1563 % 14.45 C
Sensor: Nr:Datum:Temp:Feuchte:Taupunkt:
Aussen-T/F 126 02-09-2019 00:00:00 15.43958 C 67.8264 % 9.53 C
127 03-09-2019 00:00:00 15.68611 C 70.4340 % 10.33 C
128 04-09-2019 00:00:00 16.83646 C 77.0521 % 12.79 C
129 05-09-2019 00:00:00 15.41285 C 74.8958 % 10.99 C
130 06-09-2019 00:00:00 13.54271 C 71.3021 % 8.45 C
131 07-09-2019 00:00:00 12.95382 C 86.8160 % 10.81 C
132 08-09-2019 00:00:00 12.67778 C 94.2569 % 11.78 C
133 09-09-2019 00:00:00 12.50868 C 90.4583 % 10.99 C
134 10-09-2019 00:00:00 11.86563 C 85.2361 % 9.47 C
135 11-09-2019 00:00:00 13.34931 C 80.9444 % 10.15 C
136 12-09-2019 00:00:00 19.07292 C 78.3889 % 15.23 C
137 13-09-2019 00:00:00 17.76319 C 88.1424 % 15.78 C
138 14-09-2019 00:00:00 15.58229 C 81.1806 % 12.37 C
139 15-09-2019 00:00:00 15.40243 C 78.5451 % 11.69 C
140 16-09-2019 00:00:00 16.09444 C 78.7569 % 12.41 C
141 17-09-2019 00:00:00 15.6191 C 73.6736 % 10.94 C
142 18-09-2019 00:00:00 11.41215 C 73.9826 % 6.95 C
143 19-09-2019 00:00:00 10.47361 C 74.5903 % 6.16 C
144 20-09-2019 00:00:00 10.72153 C 72.3958 % 5.97 C
145 21-09-2019 00:00:00 12.32465 C 69.3090 % 6.87 C
146 22-09-2019 00:00:00 14.8625 C 75.8819 % 10.65 C
147 23-09-2019 00:00:00 16.54479 C 84.7118 % 13.96 C
148 24-09-2019 00:00:00 14.13194 C 90.2847 % 12.57 C
149 25-09-2019 00:00:00 15.26806 C 90.7986 % 13.77 C
150 26-09-2019 00:00:00 16.26111 C 92.6840 % 15.07 C
Sensor: Nr:Datum:Temp:Feuchte:Taupunkt:
Aussen-T/F 151 27-09-2019 00:00:00 16.20451 C 86.9097 % 14.02 C
152 28-09-2019 00:00:00 15.30903 C 84.9306 % 12.79 C
153 29-09-2019 00:00:00 16.12778 C 82.9965 % 13.24 C
154 30-09-2019 00:00:00 15.31424 C 80.2917 % 11.94 C
155 01-10-2019 00:00:00 15.98125 C 88.2743 % 14.04 C
156 02-10-2019 00:00:00 12.49479 C 83.0764 % 9.7 C
157 03-10-2019 00:00:00 9.77535 C 90.5313 % 8.3 C
158 04-10-2019 00:00:00 10.31563 C 95.1563 % 9.58 C
159 05-10-2019 00:00:00 10.64965 C 87.9444 % 8.74 C
160 06-10-2019 00:00:00 8.34063 C 95.9896 % 7.74 C
161 07-10-2019 00:00:00 10.09167 C 94.3785 % 9.23 C
162 08-10-2019 00:00:00 12.83333 C 94.7292 % 12.01 C
163 09-10-2019 00:00:00 11.68715 C 92.5069 % 10.51 C
164 10-10-2019 00:00:00 11.67509 C 86.3404 % 9.47 C
165 11-10-2019 00:00:00 12.72361 C 89.2500 % 11 C
166 12-10-2019 00:00:00 13.63368 C 89.1597 % 11.88 C
167 13-10-2019 00:00:00 16.44722 C 91.2153 % 15.01 C
168 14-10-2019 00:00:00 16.00938 C 89.6632 % 14.31 C
169 15-10-2019 00:00:00 14.32674 C 92.2014 % 13.08 C
170 16-10-2019 00:00:00 12.65347 C 94.1042 % 11.73 C
171 17-10-2019 00:00:00 14.64826 C 90.9861 % 13.19 C
172 18-10-2019 00:00:00 12.52604 C 91.7500 % 11.22 C
173 19-10-2019 00:00:00 12.88561 C 90.9460 % 11.44 C
174 20-10-2019 00:00:00 13.60139 C 97.5645 % 13.22 C
175 21-10-2019 00:00:00 13.67735 C 93.5157 % 12.65 C
Sensor: Nr:Datum:Temp:Feuchte:Taupunkt:
Aussen-T/F 176 22-10-2019 00:00:00 11.49819 C 91.8520 % 10.22 C
177 23-10-2019 00:00:00 11.05972 C 94.7847 % 10.26 C
178 24-10-2019 00:00:00 14.06458 C 92.1528 % 12.81 C
179 25-10-2019 00:00:00 13.32951 C 87.3889 % 11.28 C
180 26-10-2019 00:00:00 13.17604 C 91.4201 % 11.81 C
181 27-10-2019 00:00:00 10.25174 C 93.0868 % 9.19 C
182 28-10-2019 00:00:00 6.33854 C 96.7847 % 5.87 C
183 29-10-2019 00:00:00 6.56632 C 92.0972 % 5.38 C
184 30-10-2019 00:00:00 3.52778 C 93.9410 % 2.65 C
185 31-10-2019 00:00:00 2.23438 C 93.5799 % 1.31 C
186 01-11-2019 00:00:00 6.02465 C 96.1736 % 5.46 C
187 02-11-2019 00:00:00 13.19792 C 90.2188 % 11.63 C
188 03-11-2019 00:00:00 11.85035 C 91.8125 % 10.56 C
189 04-11-2019 00:00:00 10.33333 C 92.9306 % 9.24 C
190 05-11-2019 00:00:00 9.70972 C 89.4826 % 8.07 C
191 06-11-2019 00:00:00 8.97569 C 95.1563 % 8.24 C
192 07-11-2019 00:00:00 7.93611 C 95.3368 % 7.24 C
193 08-11-2019 00:00:00 4.99444 C 96.5208 % 4.49 C
194 09-11-2019 00:00:00 4.99167 C 94.0208 % 4.11 C
195 10-11-2019 00:00:00 3.02188 C 95.6250 % 2.39 C
196 11-11-2019 00:00:00 4.67986 C 91.5590 % 3.43 C
197 12-11-2019 00:00:00 5.9125 C 88.3194 % 4.13 C
198 13-11-2019 00:00:00 5.47431 C 88.2153 % 3.68 C
199 14-11-2019 00:00:00 5.50729 C 85.9549 % 3.35 C
200 15-11-2019 00:00:00 4.68958 C 88.1493 % 2.9 C
Sensor: Nr:Datum:Temp:Feuchte:Taupunkt:
Aussen-T/F 201 16-11-2019 00:00:00 2.11389 C 95.5069 % 1.47 C
202 17-11-2019 00:00:00 3.09271 C 97.1215 % 2.68 C
203 18-11-2019 00:00:00 4.31181 C 96.2604 % 3.77 C
204 19-11-2019 00:00:00 3.99132 C 94.7500 % 3.23 C
205 20-11-2019 00:00:00 1.59583 C 94.7847 % 0.85 C
206 21-11-2019 00:00:00 1.90833 C 96.0347 % 1.34 C
207 22-11-2019 00:00:00 4.39097 C 95.3056 % 3.71 C
208 23-11-2019 00:00:00 5.38785 C 93.0174 % 4.35 C
209 24-11-2019 00:00:00 2.90104 C 97.1979 % 2.5 C
210 25-11-2019 00:00:00 4.80833 C 97.1042 % 4.39 C
211 26-11-2019 00:00:00 8.38542 C 94.7500 % 7.59 C
212 27-11-2019 00:00:00 10.34479 C 89.7222 % 8.73 C
213 28-11-2019 00:00:00 10.92778 C 83.5694 % 8.26 C
214 29-11-2019 00:00:00 6.44618 C 89.1771 % 4.8 C
215 30-11-2019 00:00:00 1.19549 C 96.2257 % 0.66 C
216 01-12-2019 00:00:00 1.79271 C 92.4965 % 0.71 C
217 02-12-2019 00:00:00 1.98646 C 93.2778 % 1.02 C
218 03-12-2019 00:00:00 4.75729 C 96.0625 % 4.18 C
219 04-12-2019 00:00:00 1.34375 C 96.3681 % 0.83 C
220 05-12-2019 00:00:00 -1.15625 C 96.9167 % -1.58 C
221 06-12-2019 00:00:00 3.41285 C 93.3160 % 2.44 C
222 07-12-2019 00:00:00 8.70903 C 88.7882 % 6.97 C
223 08-12-2019 00:00:00 10.05903 C 86.0243 % 7.83 C
224 09-12-2019 00:00:00 7.72222 C 84.5833 % 5.29 C
225 10-12-2019 00:00:00 3.24757 C 90.9167 % 1.91 C
Sensor: Nr:Datum:Temp:Feuchte:Taupunkt:
Aussen-T/F 226 11-12-2019 00:00:00 3.97292 C 94.6632 % 3.2 C
227 12-12-2019 00:00:00 3.52361 C 93.9618 % 2.65 C
228 13-12-2019 00:00:00 4.09722 C 92.0938 % 2.93 C
229 14-12-2019 00:00:00 6.8934 C 85.5833 % 4.65 C
230 15-12-2019 00:00:00 7.90069 C 88.2847 % 6.09 C
231 16-12-2019 00:00:00 8.12951 C 96.7951 % 7.65 C
232 17-12-2019 00:00:00 10.43056 C 89.8924 % 8.85 C
233 18-12-2019 00:00:00 7.77014 C 93.5347 % 6.79 C
234 19-12-2019 00:00:00 5.57986 C 95.8611 % 4.97 C
235 20-12-2019 00:00:00 7.73264 C 92.3542 % 6.57 C
236 21-12-2019 00:00:00 7.24826 C 90.1111 % 5.74 C
237 22-12-2019 00:00:00 8.18368 C 89.0243 % 6.49 C
238 23-12-2019 00:00:00 7.83021 C 88.5660 % 6.06 C
239 24-12-2019 00:00:00 7.67986 C 89.1910 % 6.02 C
240 25-12-2019 00:00:00 7.66389 C 90.7500 % 6.25 C
241 26-12-2019 00:00:00 4.9934 C 96.1910 % 4.44 C
242 27-12-2019 00:00:00 5.12153 C 94.6042 % 4.33 C
243 28-12-2019 00:00:00 -0.27465 C 95.9965 % -0.83 C
244 29-12-2019 00:00:00 -1.04618 C 95.4028 % -1.69 C
245 30-12-2019 00:00:00 -0.88507 C 94.5521 % -1.65 C
246 31-12-2019 00:00:00 0.52326 C 93.2639 % -0.44 C
247 01-01-2020 00:00:00 0.89583 C 94.9653 % 0.18 C
248 02-01-2020 00:00:00 1.68611 C 94.9097 % 0.96 C
249 03-01-2020 00:00:00 7.56111 C 91.1042 % 6.21 C
250 04-01-2020 00:00:00 5.45936 C 89.2438 % 3.83 C
Sensor: Nr:Datum:Temp:Feuchte:Taupunkt:
Aussen-T/F 251 05-01-2020 00:00:00 5.96021 C 93.0845 % 4.93 C
252 06-01-2020 00:00:00 2.98542 C 93.2813 % 2.01 C
253 07-01-2020 00:00:00 5.07812 C 92.2535 % 3.93 C
254 08-01-2020 00:00:00 8.28333 C 92.5347 % 7.15 C
255 09-01-2020 00:00:00 10.92535 C 92.7778 % 9.8 C
256 10-01-2020 00:00:00 8.91667 C 88.2604 % 7.08 C
257 11-01-2020 00:00:00 4.34236 C 88.6354 % 2.64 C
258 12-01-2020 00:00:00 5.14718 C 87.9120 % 3.31 C
259 13-01-2020 00:00:00 6.54201 C 91.7431 % 5.3 C
260 14-01-2020 00:00:00 9.77153 C 77.8924 % 6.11 C
261 15-01-2020 00:00:00 10.89063 C 76.6285 % 6.95 C
262 16-01-2020 00:00:00 7.81181 C 95.4653 % 7.13 C
263 17-01-2020 00:00:00 6.03854 C 93.7014 % 5.1 C
264 18-01-2020 00:00:00 4.44062 C 88.2049 % 2.66 C
265 19-01-2020 00:00:00 3.78507 C 94.1736 % 2.94 C
266 20-01-2020 00:00:00 2.42431 C 91.7396 % 1.22 C
267 21-01-2020 00:00:00 -1.80243 C 96.3750 % -2.3 C
268 22-01-2020 00:00:00 -1.19236 C 97.1354 % -1.59 C
269 23-01-2020 00:00:00 1.30764 C 97.1111 % 0.9 C
270 24-01-2020 00:00:00 1.43415 C 91.4390 % 0.2 C
271 25-01-2020 00:00:00 2.65128 C 94.0366 % 1.79 C
272 26-01-2020 00:00:00 2.81007 C 94.9063 % 2.08 C
273 27-01-2020 00:00:00 6.29028 C 94.0347 % 5.4 C
274 28-01-2020 00:00:00 5.69583 C 86.0521 % 3.55 C
275 29-01-2020 00:00:00 4.80035 C 82.8264 % 2.14 C
Sensor: Nr:Datum:Temp:Feuchte:Taupunkt:
Aussen-T/F 276 30-01-2020 00:00:00 7.99861 C 84.7257 % 5.59 C
277 31-01-2020 00:00:00 13.03785 C 84.2014 % 10.44 C
278 01-02-2020 00:00:00 11.64167 C 87.8160 % 9.69 C
279 02-02-2020 00:00:00 10.18611 C 84.6319 % 7.72 C
280 03-02-2020 00:00:00 10.60417 C 82.2847 % 7.71 C
281 04-02-2020 00:00:00 5.02986 C 89.6736 % 3.48 C
282 05-02-2020 00:00:00 3.76389 C 88.0764 % 1.98 C
283 06-02-2020 00:00:00 0.78437 C 93.4340 % -0.15 C
284 07-02-2020 00:00:00 0.2559 C 95.0521 % -0.44 C
285 08-02-2020 00:00:00 1.77708 C 94.2569 % 0.95 C
286 09-02-2020 00:00:00 8.82708 C 82.6076 % 6.03 C
287 10-02-2020 00:00:00 8.29444 C 82.5104 % 5.5 C
288 11-02-2020 00:00:00 5.77535 C 73.1319 % 1.35 C
289 12-02-2020 00:00:00 4.81875 C 81.1910 % 1.87 C
290 13-02-2020 00:00:00 4.01076 C 92.9375 % 2.97 C
291 14-02-2020 00:00:00 6.17951 C 91.1042 % 4.84 C
292 15-02-2020 00:00:00 6.23438 C 89.5347 % 4.64 C
293 16-02-2020 00:00:00 14.59028 C 64.9583 % 8.08 C
294 17-02-2020 00:00:00 8.54375 C 82.6597 % 5.77 C
295 18-02-2020 00:00:00 7.24965 C 80.2083 % 4.07 C
296 19-02-2020 00:00:00 6.24514 C 77.9688 % 2.7 C
297 20-02-2020 00:00:00 8.16562 C 82.5000 % 5.37 C
298 21-02-2020 00:00:00 5.17604 C 82.3542 % 2.42 C
299 22-02-2020 00:00:00 8.05035 C 78.1007 % 4.47 C
300 23-02-2020 00:00:00 10.5066 C 86.7535 % 8.4 C
Sensor: Nr:Datum:Temp:Feuchte:Taupunkt:
Aussen-T/F 301 24-02-2020 00:00:00 8.10972 C 87.2431 % 6.12 C
302 25-02-2020 00:00:00 9.07813 C 81.3194 % 6.05 C
303 26-02-2020 00:00:00 4.86319 C 80.5799 % 1.81 C
304 27-02-2020 00:00:00 2.97813 C 90.2500 % 1.54 C
305 28-02-2020 00:00:00 3.97257 C 87.1111 % 2.03 C
306 29-02-2020 00:00:00 8.92083 C 83.1944 % 6.23 C
307 01-03-2020 00:00:00 7.55313 C 83.2500 % 4.9 C
308 02-03-2020 00:00:00 6.27882 C 88.9965 % 4.6 C
309 03-03-2020 00:00:00 4.69236 C 88.6910 % 2.99 C
310 04-03-2020 00:00:00 5.49583 C 85.8333 % 3.32 C
311 05-03-2020 00:00:00 6.08229 C 93.0486 % 5.05 C
312 06-03-2020 00:00:00 6.29896 C 90.4271 % 4.85 C
313 07-03-2020 00:00:00 6.57396 C 78.9375 % 3.19 C
314 08-03-2020 00:00:00 9.63993 C 76.9618 % 5.8 C
315 09-03-2020 00:00:00 7.99514 C 81.5208 % 5.03 C
316 10-03-2020 00:00:00 9.51076 C 90.5833 % 8.05 C
317 11-03-2020 00:00:00 14.09028 C 86.0660 % 11.8 C
318 12-03-2020 00:00:00 11.24514 C 72.6007 % 6.51 C
319 13-03-2020 00:00:00 7.37569 C 76.2951 % 3.49 C
320 14-03-2020 00:00:00 6.05799 C 83.2604 % 3.44 C
321 15-03-2020 00:00:00 8.92639 C 74.2326 % 4.6 C
322 16-03-2020 00:00:00 9.3 C 80.2431 % 6.08 C
323 17-03-2020 00:00:00 11.38021 C 79.9722 % 8.05 C
324 18-03-2020 00:00:00 9.96493 C 82.5590 % 7.14 C
325 19-03-2020 00:00:00 12.13646 C 76.1042 % 8.06 C
Sensor: Nr:Datum:Temp:Feuchte:Taupunkt:
Aussen-T/F 326 20-03-2020 00:00:00 10.33299 C 84.0660 % 7.76 C
327 21-03-2020 00:00:00 6.16667 C 76.4236 % 2.34 C
328 22-03-2020 00:00:00 4.50243 C 57.8438 % -3.06 C
329 23-03-2020 00:00:00 2.99688 C 55.3889 % -5.05 C
330 24-03-2020 00:00:00 2.86181 C 56.4375 % -4.93 C
331 25-03-2020 00:00:00 3.75208 C 52.7257 % -4.99 C
332 26-03-2020 00:00:00 5.07118 C 57.3819 % -2.64 C
333 27-03-2020 00:00:00 7.93715 C 66.7500 % 2.15 C
334 28-03-2020 00:00:00 9.59861 C 66.6528 % 3.71 C
335 29-03-2020 00:00:00 5.44891 C 69.6413 % 0.36 C
336 30-03-2020 00:00:00 2.775 C 64.1319 % -3.31 C
337 31-03-2020 00:00:00 5.47118 C 66.1771 % -0.32 C
338 01-04-2020 00:00:00 3.8184 C 62.2569 % -2.72 C
339 02-04-2020 00:00:00 5.06042 C 67.9931 % -0.35 C
340 03-04-2020 00:00:00 8.20382 C 67.0382 % 2.46 C
341 04-04-2020 00:00:00 6.78958 C 68.9722 % 1.51 C
342 05-04-2020 00:00:00 9.49479 C 65.0729 % 3.27 C
343 06-04-2020 00:00:00 12.0434 C 60.3299 % 4.61 C
344 07-04-2020 00:00:00 13.80521 C 67.0417 % 7.8 C
345 08-04-2020 00:00:00 14.48472 C 65.0764 % 8.01 C
346 09-04-2020 00:00:00 15.29167 C 62.6840 % 8.22 C
347 10-04-2020 00:00:00 14.13646 C 66.3542 % 7.96 C
348 11-04-2020 00:00:00 14.06563 C 57.0417 % 5.7 C
349 12-04-2020 00:00:00 15.15174 C 60.2361 % 7.51 C
350 13-04-2020 00:00:00 9.40139 C 69.2118 % 4.05 C
Sensor: Nr:Datum:Temp:Feuchte:Taupunkt:
Aussen-T/F 351 14-04-2020 00:00:00 6.11181 C 64.0868 % -0.16 C
352 15-04-2020 00:00:00 8.67361 C 64.9514 % 2.46 C
353 16-04-2020 00:00:00 12.83299 C 63.9514 % 6.19 C
354 17-04-2020 00:00:00 15.23854 C 69.5278 % 9.71 C
355 18-04-2020 00:00:00 14.52083 C 78.8333 % 10.89 C
356 19-04-2020 00:00:00 13.06597 C 78.2396 % 9.37 C
357 20-04-2020 00:00:00 12.5066 C 50.4653 % 2.51 C
358 21-04-2020 00:00:00 13.59583 C 47.9965 % 2.81 C
359 22-04-2020 00:00:00 14.35 C 50.4549 % 4.2 C
360 23-04-2020 00:00:00 14.16042 C 57.7604 % 5.97 C
361 24-04-2020 00:00:00 13.96285 C 61.8542 % 6.77 C
362 25-04-2020 00:00:00 12.06389 C 62.5347 % 5.14 C
363 26-04-2020 00:00:00 11.44375 C 66.4514 % 5.42 C
364 27-04-2020 00:00:00 12.89201 C 66.5382 % 6.82 C
365 28-04-2020 00:00:00 12.69306 C 86.7639 % 10.55 C
366 29-04-2020 00:00:00 14.31979 C 76.7049 % 10.29 C

Maximal/Minimal-Werte vom 30.04.2019 - 29.04.2020

Sensor Min Max Avg
Temp
(Aussen-T/F)
-3.6 °C
29-12-2019  07:25:00
40.4 °C
25-07-2019  16:20:00
11.75 °C
Feuchte
(Aussen-T/F)
19 %
06-07-2019  15:50:00
99 %
21-10-2019  10:45:00
80.82 %
Taupunkt
(Aussen-T/F)
-5.05 C
23-03-2020  00:00:00
20.21 C
26-06-2019  00:00:00
8.34 C

Die Daten stammen von einer Davis Vantage Pro 2 Wetter-Station und werden unter Linux mit der Software wview2wettercgi und aufbereitet. Alle Angaben erfolgen ohne Gewähr für ihre Vollständigkeit oder Richtigkeit.
Kontakt: Rainer Krienke krienke@uni-koblenz.de . Meine Webseiten an der Uni Koblenz oder privat.
Version: $Revision: 0.78 $